User: anonymous   Login
Location: Unspecified
(0.0000°N, 0.0000°E)
Time: 01:10:28
(UTC+00:00)
Language:

ONEWEB-0525 - Orbit

View from above orbital plane
View from above orbital plane
View from above satellite
View from above satellite

Ground track
Ground track

The orbit is defined by the following mean orbital elements,

1 54143U          26145.41637419 +.00000000 +00000-0 -44958-2 0 00006
2 54143  87.9159 309.5027 0001628  88.2366 271.8954 13.19734355    01
Epoch (UTC): 25 May 2026 09:59:34
Eccentricity: 0.0001628
inclination: 87.9159°
perigee height: 1185 km
apogee height: 1187 km
right ascension of ascending node: 309.5027°
argument of perigee: 88.2366°
revolutions per day: 13.19734355
mean anomaly at epoch: 271.8954°

The dashed part of the orbit path shows where the satellite is in the earth's shadow,  

DLR